Всё
Riversleigh Airport YRLH Погода
There is no TAF data available at YRLH or any nearby airports.
There is no METAR data available at YRLH. Showing METAR data for YCNY (19 mi С).
Недавняя история METAR для YCNY (для YRLH данные отсутствуют)
| Date | Time (AEST) | Flight Rules | Wind Dir. | Speed | Type | Height AGL (ft) | Visibility | Temp (°C) | Temp (°F) | Dew Point (°C) | Dew Point (°F) | Rel. Humid. | Pressure | Density Altitude | Remarks |
|---|---|---|---|---|---|---|---|---|---|---|---|---|---|---|---|
| 09-май | 10:00 | n/a | 140° | 11 kt | Missing | 23° | 73° | 1° | 33° | 23% | 1018 mb | 1,234 ft | |||
| 09-май | 09:00 | n/a | 160° | 9 kt | Missing | 22° | 71° | 0° | 32° | 23% | 1018 mb | 1,114 ft | |||
| 09-май | 08:00 | n/a | 170° | 7 kt | Missing | 20° | 68° | 1° | 33° | 28% | 1017 mb | 904 ft | |||
| 09-май | 07:00 | n/a | 170° | 6 kt | Missing | 18° | 64° | 2° | 35° | 34% | 1017 mb | 664 ft | |||
| 09-май | 06:00 | n/a | 170° | 6 kt | Missing | 19° | 66° | 3° | 37° | 34% | 1016 mb | 814 ft | |||
| 09-май | 05:00 | n/a | 160° | 7 kt | Missing | 19° | 66° | 4° | 39° | 37% | 1016 mb | 814 ft | |||
| 09-май | 04:00 | n/a | 170° | 7 kt | Missing | 20° | 68° | 6° | 42° | 40% | 1016 mb | 934 ft | |||
| 09-май | 03:00 | n/a | 170° | 7 kt | Missing | 20° | 68° | 7° | 44° | 43% | 1016 mb | 934 ft | |||
| 09-май | 02:00 | n/a | 170° | 8 kt | Missing | 21° | 69° | 7° | 44° | 40% | 1016 mb | 1,054 ft | |||
| 09-май | 01:00 | n/a | 170° | 9 kt | Missing | 22° | 71° | 8° | 46° | 41% | 1016 mb | 1,174 ft | |||
| 09-май | 00:00 | n/a | 190° | 7 kt | Missing | 22° | 71° | 10° | 50° | 46% | 1017 mb | 1,144 ft | |||
| 08-май | 23:00 | n/a | 190° | 7 kt | Missing | 23° | 73° | 11° | 51° | 47% | 1017 mb | 1,264 ft | |||
| 08-май | 22:00 | n/a | 180° | 7 kt | Missing | 24° | 75° | 10° | 50° | 41% | 1017 mb | 1,384 ft | |||
| 08-май | 21:00 | n/a | 170° | 7 kt | Missing | 25° | 77° | 11° | 51° | 41% | 1017 mb | 1,504 ft | |||
| 08-май | 20:00 | n/a | 170° | 6 kt | Missing | 25° | 77° | 12° | 53° | 44% | 1016 mb | 1,534 ft | |||
| 08-май | 19:00 | n/a | 160° | 7 kt | Missing | 26° | 78° | 12° | 53° | 42% | 1015 mb | 1,683 ft | |||
| 08-май | 18:00 | n/a | 150° | 8 kt | Missing | 27° | 80° | 12° | 53° | 39% | 1014 mb | 1,833 ft | |||
| 08-май | 17:00 | n/a | 150° | 9 kt | Missing | 29° | 84° | 13° | 55° | 37% | 1014 mb | 2,073 ft | |||
| 08-май | 16:00 | n/a | 150° | 9 kt | Missing | 30° | 86° | 13° | 55° | 35% | 1014 mb | 2,193 ft | |||
| 08-май | 15:00 | n/a | 130° | 11 kt | Missing | 28° | 82° | 12° | 53° | 37% | 1014 mb | 1,953 ft | |||
| 08-май | 14:00 | n/a | 140° | 9 kt | Missing | 30° | 86° | 12° | 53° | 33% | 1014 mb | 2,193 ft | |||
| 08-май | 13:00 | n/a | 130° | 13 kt | Missing | 29° | 84° | 12° | 53° | 35% | 1015 mb | 2,043 ft | |||
| 08-май | 12:00 | n/a | 140° | 12 kt | Missing | 27° | 80° | 10° | 50° | 34% | 1016 mb | 1,774 ft | |||
| 08-май | 11:00 | n/a | 140° | 11 kt | Missing | 25° | 77° | 9° | 48° | 36% | 1017 mb | 1,504 ft |
Вход
| Ваш браузер не поддерживается.. обновите веб-браузер |
